RH
52 51 49 46 44 45 46 46 45 42 38 32 25 21 21 23 23 23 24 24 25 27 28 29 31 31 32 33 34 36 37 38 39 39 39 39 39 38 37 37 35 34
60 59 59 58 57 58 57 54 49 44 40 35 29 27 27 28 28 29 30 30 32 34 36 37 38 39 39 40 40 41 41 41 41 41 41 41 41 40 39 38 37 35
70 68 67 68 66 64 61 56 51 48 45 41 37 35 35 34 34 33 34 36 38 41 42 43 43 43 43 43 43 42 42 42 42 41 42 41 40 38 37 35 33 32
76 75 73 73 70 66 63 60 57 54 50 47 44 42 41 39 38 38 39 41 43 44 45 45 45 44 43 41 41 40 39 40 41 41 41 40 39 37 35 33 31 30
82 83 80 78 73 69 66 60 54 50 48 47 46 45 45 45 44 44 44 45 46 47 46 45 44 42 41 40 38 38 38 38 40 40 40 39 38 36 34 32 31 30
83 85 82 79 75 71 63 54 48 47 47 48 48 48 49 49 49 49 49 49 49 48 47 46 44 43 42 40 38 38 38 38 39 39 39 38 36 34 33 31 30 29
74 79 80 79 75 66 56 50 49 50 50 50 50 52 52 53 53 53 52 51 50 49 49 47 46 46 43 40 39 39 39 39 40 39 37 36 35 33 32 30 29 28
68 72 75 76 71 63 57 54 54 52 52 53 54 56 56 57 57 56 54 52 52 52 52 50 50 48 45 43 42 42 42 42 41 39 38 36 34 32 30 29 28 26
71 72 72 71 68 64 61 59 57 56 56 57 59 60 60 61 61 58 56 54 54 55 54 54 53 50 47 47 46 45 44 43 42 40 38 35 33 31 29 28 27 25
72 71 67 65 63 63 63 63 64 64 64 64 64 65 65 65 63 61 59 57 56 56 57 57 55 52 50 49 49 48 45 43 42 39 37 34 32 30 29 27 26 25
68 67 65 65 66 69 70 70 70 71 71 71 70 70 70 69 67 64 61 60 58 58 58 59 57 54 53 52 51 49 46 43 41 38 35 33 30 29 27 26 25 24
66 65 63 62 65 68 71 72 73 72 72 71 71 73 73 72 70 67 64 61 59 59 60 61 61 59 57 55 53 49 46 43 39 36 34 31 29 28 26 26 24 23
61 58 56 56 60 64 66 67 68 68 70 72 74 74 73 70 67 65 64 61 58 59 62 65 67 65 61 58 55 50 46 42 38 35 32 30 29 28 26 25 22 19
56 51 50 55 62 65 67 68 68 69 71 71 69 66 62 60 59 61 61 60 59 60 63 68 71 69 64 60 56 50 45 40 37 33 31 30 29 28 25 22 18 15
59 59 61 65 67 68 68 65 62 59 56 52 49 47 47 50 54 58 59 61 63 63 64 71 76 73 67 61 55 48 42 38 35 33 32 31 29 26 22 17 14 11
55 58 61 61 60 58 55 52 49 47 44 41 38 38 43 51 56 59 61 65 69 68 69 75 80 76 69 60 51 45 40 36 35 34 33 30 26 21 16 13 10 8
47 47 47 46 44 43 42 41 39 38 38 42 46 48 50 53 58 63 68 73 76 76 75 80 82 77 66 55 47 42 38 37 37 35 31 25 20 15 12 10 8 7
40 40 38 36 34 33 32 31 31 37 46 53 57 56 53 54 62 72 78 82 84 83 84 85 82 72 60 49 44 40 39 39 37 31 25 19 15 12 9 8 6 5
39 38 35 34 32 30 28 27 31 44 56 55 49 47 52 63 76 86 90 90 90 90 91 87 76 63 52 45 42 41 41 38 31 24 19 14 12 9 7 6 5 4
38 36 34 32 30 28 28 27 29 35 39 37 35 42 57 75 89 96 96 95 95 96 91 79 65 54 47 44 43 42 38 31 24 19 14 11 8 6 5 4 4 4
37 35 33 31 30 28 27 27 28 28 29 31 36 49 67 85 95 97 96 96 95 88 76 63 54 49 47 47 44 39 31 24 19 14 10 7 5 5 4 4 3 3
36 35 33 32 31 28 27 32 34 34 38 47 57 71 83 91 93 95 96 92 83 71 60 53 51 50 49 46 38 30 24 19 14 9 6 5 5 4 4 4 3 4
35 33 31 30 28 27 37 54 62 60 63 72 79 85 89 92 94 95 90 78 66 58 54 53 53 51 46 38 30 24 19 13 8 6 5 4 4 4 4 4 4 5
32 30 28 27 27 27 35 53 69 78 84 88 90 92 95 96 93 86 73 61 56 54 55 55 53 46 36 29 24 18 12 8 5 4 5 4 4 4 4 5 5 5
30 29 26 25 27 30 36 49 68 83 90 94 97 99 96 87 76 65 56 53 54 55 56 53 45 36 29 23 18 11 6 5 5 4 4 4 5 5 5 6 6 6
30 29 28 27 30 38 50 64 76 83 87 92 93 88 77 66 58 53 50 52 56 56 53 44 35 29 23 16 10 6 5 5 5 4 5 5 5 6 6 7 6 6
Wind_Speed
14 14 14 15 15 16 17 17 17 16 16 16 16 17 18 19 21 22 22 23 24 25 26 28 29 30 31 32 32 33 33 34 34 34 34 34 35 35 35 36 36 36
14 15 15 16 17 17 17 16 16 16 16 17 17 18 19 20 21 22 23 24 25 26 27 28 29 30 31 32 33 33 34 34 34 35 35 35 36 36 36 36 36 36
16 16 17 17 17 17 16 15 16 16 17 18 19 20 20 21 22 22 23 24 24 26 27 28 29 30 31 33 33 34 34 34 35 35 36 36 36 36 35 35 36 35
17 18 18 18 17 16 15 15 16 17 18 19 19 20 20 21 21 22 22 23 25 26 27 28 30 31 32 33 34 35 35 35 36 36 36 36 36 35 35 35 35 36
18 18 18 17 16 16 16 16 17 17 18 19 19 20 20 21 21 22 22 24 25 27 28 30 31 32 33 34 35 35 35 36 36 36 36 36 36 35 35 36 36 37
18 18 17 17 17 17 17 17 17 18 18 19 19 20 21 22 22 22 23 24 26 27 29 30 32 33 33 34 34 35 35 36 36 36 36 35 36 36 36 37 38 39
18 18 18 18 18 18 17 18 18 19 20 20 21 22 22 23 23 23 24 25 27 28 30 31 32 32 33 33 34 34 34 35 34 35 35 35 36 37 37 38 39 39
19 19 19 19 19 19 18 19 20 20 21 22 23 23 24 24 24 25 26 27 28 30 31 32 32 33 33 34 34 34 34 34 35 35 36 36 37 38 38 39 39 40
19 19 19 19 19 20 20 21 22 22 23 23 24 25 25 25 26 26 27 28 30 31 32 33 33 34 35 35 36 36 35 35 36 37 37 38 38 39 39 40 40 41
21 20 20 20 21 22 22 23 23 24 24 25 26 26 27 27 28 28 29 30 31 33 33 34 35 36 36 37 37 37 37 37 38 39 39 39 40 40 40 41 42 43
22 21 20 21 21 22 22 23 24 24 25 26 27 28 29 29 29 30 31 32 33 34 35 35 36 37 38 38 38 38 38 39 39 40 40 41 41 41 42 43 43 44
22 21 21 21 21 21 22 23 24 25 25 27 28 29 30 30 31 32 33 34 35 35 36 36 37 38 38 39 38 38 39 40 41 41 42 42 42 43 44 45 46 46
24 23 23 23 23 23 23 24 25 26 27 28 29 30 31 31 33 34 35 36 36 37 37 37 38 38 39 39 39 39 40 41 42 42 43 43 44 45 46 47 48 48
25 25 24 24 24 24 25 25 26 27 28 28 29 31 32 33 34 35 37 38 39 39 38 38 39 39 39 39 39 40 41 42 43 43 44 45 46 47 48 48 49 49
22 23 23 23 24 24 25 26 27 28 29 30 31 32 34 35 36 37 38 40 41 40 40 39 39 39 39 39 40 41 42 42 43 44 45 46 47 48 48 48 48 48
21 21 22 22 23 24 25 27 29 30 31 32 33 34 36 37 38 39 40 42 42 41 41 40 40 39 39 40 40 41 41 42 43 44 45 46 47 48 48 48 48 48
21 21 22 23 24 26 28 29 31 32 33 34 35 36 37 38 39 40 42 43 44 43 42 42 41 40 40 40 40 41 41 42 43 44 46 47 47 47 47 47 47 48
22 22 23 24 26 28 29 31 32 34 34 34 35 36 37 38 40 42 43 44 44 43 43 42 40 39 40 40 40 41 41 42 44 45 46 47 47 47 47 47 48 49
24 24 26 27 28 30 31 32 33 34 34 35 35 36 37 39 41 42 44 44 44 43 42 40 39 38 39 40 40 41 42 43 44 45 46 46 45 46 47 48 49 50
26 27 28 29 31 32 33 35 35 35 35 36 36 37 37 38 40 41 42 43 42 40 39 37 37 38 39 39 40 41 42 44 44 44 44 44 45 46 47 48 49 50
28 29 30 31 32 34 35 36 37 37 37 37 37 37 36 36 37 39 40 39 38 36 35 35 36 37 37 39 40 42 43 43 43 43 43 44 45 46 48 48 49 49
28 28 30 31 32 34 36 37 38 38 36 35 34 33 32 33 35 36 36 35 34 34 34 34 35 36 37 39 40 42 42 42 42 42 42 44 45 47 47 48 48 48
27 28 30 31 32 33 33 33 34 33 31 29 29 30 31 32 33 33 33 32 32 33 33 34 35 36 38 40 41 41 41 40 41 42 43 44 46 46 46 46 46 46
27 28 29 30 31 31 30 28 28 28 28 28 29 30 30 30 31 31 31 31 31 32 32 33 35 37 38 40 40 39 39 40 41 42 43 44 45 45 45 44 44 44
26 27 28 29 30 29 27 25 24 25 26 27 28 29 28 29 29 29 29 30 30 31 33 34 36 38 38 38 38 38 38 39 41 42 43 43 43 43 42 42 42 42
26 26 27 28 28 27 24 22 22 23 23 24 26 26 27 27 27 28 28 29 30 32 33 35 36 37 37 36 36 37 38 39 41 41 41 41 40 40 40 40 40 40
Wind_Direction
244 246 248 250 253 256 259 262 266 269 273 276 278 280 282 284 286 288 290 292 294 296 296 297 297 298 298 299 300 300 300 301 301 301 301 301 300 300 299 299 298 298
251 251 252 254 256 257 260 264 269 272 276 279 280 282 284 286 289 291 293 294 295 296 296 296 297 298 299 300 300 301 301 302 302 302 302 302 302 301 301 300 299 299
252 251 252 254 256 259 264 268 273 277 279 281 281 283 285 287 289 292 293 295 295 294 295 295 297 298 299 301 302 302 303 303 303 303 303 303 303 302 301 301 300 300
253 253 254 256 259 262 267 272 276 279 279 280 282 283 285 287 290 292 294 294 294 294 295 296 298 300 301 302 303 304 304 304 303 303 303 303 303 302 302 301 301 302
255 255 255 257 261 264 270 275 277 279 280 281 284 285 287 289 291 293 294 294 294 294 296 298 300 302 303 305 305 305 305 304 304 304 304 304 304 303 304 303 303 303
256 256 257 259 263 267 271 274 276 279 281 283 285 286 288 290 292 294 294 294 294 295 297 299 302 304 305 306 306 306 305 304 304 304 304 305 305 305 305 305 305 304
256 256 258 261 264 268 271 273 275 278 281 284 286 287 289 291 293 294 294 295 295 296 299 301 303 305 305 306 306 305 304 304 304 305 306 306 306 306 306 305 305 305
256 256 257 260 264 268 270 272 274 278 282 285 287 288 290 292 293 295 295 295 296 297 300 302 304 305 305 306 306 305 305 305 306 308 308 308 307 307 306 306 305 305
258 258 259 262 266 269 271 274 277 280 283 285 287 289 290 292 294 295 296 296 297 298 300 302 304 306 307 308 307 306 306 308 309 310 309 308 308 307 306 306 305 305
261 263 266 268 269 271 273 276 278 280 282 285 287 289 291 293 294 295 296 296 297 299 301 303 305 307 308 308 308 307 308 310 311 310 309 308 307 307 306 306 306 305
261 264 268 270 271 272 273 276 278 280 283 285 287 289 291 293 294 295 296 296 298 299 301 302 304 306 308 308 308 308 309 311 311 310 308 308 307 307 307 307 307 306
261 263 267 269 270 272 273 275 278 280 282 284 286 288 290 292 294 295 296 297 298 299 300 301 303 305 307 307 307 308 310 310 310 309 308 308 308 308 308 308 308 308
260 261 264 266 268 270 271 274 276 278 281 282 284 287 289 292 294 294 295 295 296 297 298 300 302 305 306 307 307 309 310 310 310 309 309 309 309 310 310 310 309 308
258 259 262 264 267 269 271 273 275 277 280 282 285 288 290 291 292 293 293 294 294 295 297 299 302 304 306 307 309 311 311 310 310 309 310 310 311 311 311 310 309 308
257 259 261 264 266 269 272 274 276 278 281 283 285 287 288 289 290 291 292 292 292 294 296 299 302 304 306 308 310 311 310 309 309 309 310 310 311 310 309 309 308 308
256 258 262 266 270 273 276 278 280 282 283 284 286 287 288 289 290 291 291 290 291 293 296 299 301 302 305 307 308 308 308 308 308 309 310 310 310 309 309 308 309 309
260 264 269 274 277 280 281 283 284 286 286 287 287 288 289 290 290 290 289 289 291 293 296 299 300 301 304 306 307 307 307 308 309 310 311 310 310 309 309 310 311 312
267 272 276 280 281 282 283 285 286 286 286 287 288 289 290 291 291 290 289 290 292 294 297 299 299 300 303 305 305 306 307 308 310 311 311 310 310 311 311 313 314 314
272 276 279 281 282 283 284 285 285 285 285 287 289 291 290 290 290 290 290 291 293 295 297 297 297 300 303 304 305 306 308 309 310 310 310 311 311 313 314 315 315 316
274 276 279 280 282 284 284 284 285 286 286 288 290 289 288 289 290 291 292 294 295 296 296 296 298 301 303 304 305 307 309 310 310 311 311 312 313 314 315 316 316 316
275 277 280 281 283 283 284 285 287 287 288 288 288 288 288 289 291 293 294 296 296 296 295 297 300 302 303 305 307 308 309 310 310 311 312 314 315 316 317 317 317 317
278 281 283 284 285 286 287 288 287 286 288 289 288 288 289 292 293 294 295 295 294 295 296 299 301 303 305 306 308 309 310 310 311 313 315 316 317 317 317 317 317 318
283 285 286 287 288 289 291 291 288 285 286 289 290 290 291 292 292 292 292 292 293 296 299 302 303 305 306 308 309 309 310 312 314 315 316 317 317 317 318 318 319 320
284 286 288 288 289 290 292 294 291 285 283 286 288 288 289 289 289 289 290 293 297 300 302 303 305 306 307 308 309 310 312 314 316 317 318 318 318 318 318 319 320 321
286 288 288 289 291 292 292 289 285 280 279 281 283 284 285 286 287 290 293 297 300 302 303 304 305 306 307 308 310 312 314 316 317 318 318 318 318 319 319 321 322 324
287 288 289 291 293 294 292 285 280 278 279 280 281 282 284 287 290 295 298 300 301 302 304 305 306 306 308 310 313 315 316 318 318 318 318 318 318 320 321 323 325 327